Location: Clyde
(45.1830°S, 169.3170°E)
Time: 17:39:11
(UTC+12:00)

Envisat - Pass Details

Date: 14 May 2021
Orbit: 764 x 766 km, 98.1° (Epoch: 16 June)

Event Time Altitude Azimuth Distance (km) Brightness Sun altitude
Rises 18:10:59 0° 166° (SSE) 3,274 5.9 -8.4°
Reaches altitude 10° 18:13:19 10° 164° (SSE) 2,340 5.2 -8.8°
Maximum altitude 18:18:30 77° 77° (ENE) 802 3.0 -9.6°
Drops below altitude 10° 18:23:36 10° 351° (N) 2,310 5.8 -10.5°
Sets 18:25:54 0° 349° (N) 3,229 6.6 -10.9°
